EJU805 EDDK-LSZA

Flight info

Callsign EJU805
Flight time 0h 59m
Altitude 37000
Route COL1R COL DCT DODEN Y852 EDISA Y173 PABLA Y163 NATOR N850 ODINA
Aircraft A319/M-SDE3FGHIRWY/LB1

Departure

Time 2026-04-24 22:42
Airport Cologne Bonn Airport (EDDK)

Arrival

Time 2026-04-24 23:41
Airport Lugano Airport (LSZA)
Time Latitude Longitude Altitude Speed Heading
2026-04-24 21:54 50.88103 7.12092 232 ft 0 kts 216°
2026-04-24 22:13 50.88104 7.12092 232 ft 0 kts 216°
2026-04-24 22:28 50.88114 7.12104 232 ft 3 kts 218°
2026-04-24 22:28 50.88130 7.12124 234 ft 3 kts 217°
2026-04-24 22:28 50.88143 7.12140 233 ft 3 kts 205°
2026-04-24 22:29 50.88179 7.12138 234 ft 3 kts 142°
2026-04-24 22:29 50.88189 7.12123 236 ft 0 kts 126°
2026-04-24 22:31 50.88188 7.12126 233 ft 2 kts 126°
2026-04-24 22:31 50.88153 7.12202 232 ft 12 kts 126°
2026-04-24 22:31 50.88101 7.12319 232 ft 14 kts 126°
2026-04-24 22:32 50.88046 7.12447 232 ft 15 kts 120°
2026-04-24 22:32 50.88000 7.12572 232 ft 10 kts 127°
2026-04-24 22:32 50.87938 7.12623 232 ft 11 kts 172°
2026-04-24 22:32 50.87858 7.12612 232 ft 12 kts 175°
2026-04-24 22:33 50.87781 7.12682 232 ft 14 kts 137°
2026-04-24 22:33 50.87702 7.12797 232 ft 20 kts 138°
2026-04-24 22:33 50.87568 7.12989 232 ft 28 kts 137°
2026-04-24 22:33 50.87425 7.13198 232 ft 28 kts 137°
2026-04-24 22:34 50.87278 7.13411 233 ft 28 kts 137°
2026-04-24 22:34 50.87136 7.13617 239 ft 27 kts 137°
2026-04-24 22:34 50.87003 7.13809 244 ft 25 kts 137°
2026-04-24 22:34 50.86893 7.13967 253 ft 14 kts 137°
2026-04-24 22:35 50.86824 7.14066 255 ft 14 kts 138°
2026-04-24 22:35 50.86740 7.14147 256 ft 15 kts 159°
2026-04-24 22:35 50.86666 7.14235 260 ft 12 kts 136°
2026-04-24 22:35 50.86601 7.14332 262 ft 16 kts 137°
2026-04-24 22:36 50.86504 7.14469 266 ft 21 kts 139°
2026-04-24 22:36 50.86404 7.14614 272 ft 18 kts 137°
2026-04-24 22:36 50.86317 7.14744 277 ft 16 kts 137°
2026-04-24 22:36 50.86238 7.14858 281 ft 14 kts 137°
2026-04-24 22:37 50.86168 7.14957 285 ft 13 kts 138°
2026-04-24 22:37 50.86103 7.15050 287 ft 12 kts 138°
2026-04-24 22:37 50.86035 7.15148 292 ft 15 kts 137°
2026-04-24 22:37 50.85960 7.15256 294 ft 14 kts 137°
2026-04-24 22:38 50.85888 7.15362 297 ft 14 kts 137°
2026-04-24 22:38 50.85817 7.15465 297 ft 15 kts 137°
2026-04-24 22:38 50.85729 7.15592 302 ft 18 kts 137°
2026-04-24 22:38 50.85638 7.15724 303 ft 17 kts 137°
2026-04-24 22:39 50.85550 7.15852 306 ft 17 kts 137°
2026-04-24 22:39 50.85465 7.15977 308 ft 17 kts 137°
2026-04-24 22:39 50.85383 7.16095 308 ft 14 kts 136°
2026-04-24 22:39 50.85337 7.16228 308 ft 10 kts 102°
2026-04-24 22:40 50.85342 7.16348 308 ft 12 kts 73°
2026-04-24 22:40 50.85390 7.16461 308 ft 13 kts 41°
2026-04-24 22:40 50.85477 7.16519 308 ft 15 kts
2026-04-24 22:40 50.85578 7.16481 308 ft 16 kts 328°
2026-04-24 22:41 50.85665 7.16358 308 ft 20 kts 317°
2026-04-24 22:41 50.85952 7.15942 300 ft 99 kts 317°
2026-04-24 22:41 50.86635 7.14953 283 ft 166 kts 317°
2026-04-24 22:41 50.87236 7.14065 543 ft 180 kts 317°
2026-04-24 22:42 50.88453 7.12274 1692 ft 181 kts 319°
2026-04-24 22:42 50.89575 7.11176 2252 ft 203 kts 348°
2026-04-24 22:42 50.90986 7.11461 3022 ft 213 kts 25°
2026-04-24 22:42 50.92289 7.12643 3902 ft 223 kts 33°
2026-04-24 22:43 50.93345 7.14607 4419 ft 252 kts 65°
2026-04-24 22:43 50.93498 7.17442 5198 ft 271 kts 102°
2026-04-24 22:43 50.92730 7.20210 6202 ft 277 kts 116°
2026-04-24 22:43 50.91784 7.22887 7211 ft 281 kts 118°
2026-04-24 22:44 50.90797 7.25537 8164 ft 285 kts 120°
2026-04-24 22:44 50.89778 7.28251 9135 ft 289 kts 120°
2026-04-24 22:44 50.88746 7.31017 10122 ft 294 kts 120°
2026-04-24 22:44 50.87692 7.33871 10706 ft 312 kts 120°
2026-04-24 22:45 50.86563 7.36942 11175 ft 330 kts 120°
2026-04-24 22:45 50.85397 7.40129 11945 ft 338 kts 120°
2026-04-24 22:45 50.84213 7.43376 12759 ft 343 kts 120°
2026-04-24 22:45 50.83012 7.46670 13570 ft 348 kts 120°
2026-04-24 22:46 50.81808 7.49972 14336 ft 354 kts 120°
2026-04-24 22:46 50.80567 7.53364 15041 ft 359 kts 121°
2026-04-24 22:46 50.79309 7.56799 15755 ft 363 kts 121°
2026-04-24 22:46 50.78036 7.60276 16448 ft 368 kts 121°
2026-04-24 22:47 50.76751 7.63814 17127 ft 374 kts 121°
2026-04-24 22:47 50.75456 7.67408 17812 ft 379 kts 121°
2026-04-24 22:47 50.74147 7.71047 18486 ft 384 kts 121°
2026-04-24 22:47 50.72817 7.74735 19068 ft 389 kts 121°
2026-04-24 22:48 50.71484 7.78422 19666 ft 394 kts 121°
2026-04-24 22:48 50.70121 7.82188 20274 ft 398 kts 121°
2026-04-24 22:48 50.68741 7.85999 20875 ft 402 kts 122°
2026-04-24 22:48 50.67342 7.89851 21465 ft 407 kts 122°
2026-04-24 22:49 50.65925 7.93735 22074 ft 411 kts 122°
2026-04-24 22:49 50.64492 7.97654 22653 ft 415 kts 122°
2026-04-24 22:49 50.62930 8.01499 23221 ft 417 kts 131°
2026-04-24 22:49 50.60941 8.04816 23789 ft 416 kts 143°
2026-04-24 22:50 50.58584 8.07427 24266 ft 414 kts 155°
2026-04-24 22:50 50.56004 8.09225 24769 ft 410 kts 167°
2026-04-24 22:50 50.53240 8.10217 25255 ft 406 kts 178°
2026-04-24 22:50 50.50427 8.10606 25739 ft 407 kts 180°
2026-04-24 22:51 50.47598 8.10970 26231 ft 410 kts 180°
2026-04-24 22:51 50.44747 8.11341 26699 ft 412 kts 180°
2026-04-24 22:51 50.41894 8.11716 27176 ft 415 kts 180°
2026-04-24 22:51 50.38996 8.12097 27638 ft 417 kts 180°
2026-04-24 22:52 50.36097 8.12478 28078 ft 420 kts 180°
2026-04-24 22:52 50.33214 8.12858 28550 ft 422 kts 180°
2026-04-24 22:52 50.30284 8.13246 29009 ft 424 kts 180°
2026-04-24 22:52 50.27331 8.13632 29457 ft 427 kts 180°
2026-04-24 22:53 50.24363 8.14013 29902 ft 429 kts 180°
2026-04-24 22:53 50.21377 8.14393 30319 ft 432 kts 180°
2026-04-24 22:53 50.18376 8.14782 30680 ft 434 kts 180°
2026-04-24 22:53 50.15356 8.15178 31034 ft 437 kts 180°
2026-04-24 22:54 50.12323 8.15582 31368 ft 439 kts 179°
2026-04-24 22:54 50.09276 8.16001 31742 ft 440 kts 179°
2026-04-24 22:54 50.06268 8.16425 32134 ft 440 kts 179°
2026-04-24 22:54 50.03222 8.16857 32629 ft 439 kts 179°
2026-04-24 22:55 50.00189 8.17288 33118 ft 437 kts 179°
2026-04-24 22:55 49.97163 8.17715 33608 ft 436 kts 179°
2026-04-24 22:55 49.94147 8.18137 34091 ft 435 kts 179°
2026-04-24 22:55 49.91134 8.18554 34541 ft 434 kts 179°
2026-04-24 22:56 49.88134 8.18966 34937 ft 432 kts 179°
2026-04-24 22:56 49.85142 8.19375 35347 ft 431 kts 179°
2026-04-24 22:56 49.82197 8.19777 35727 ft 430 kts 179°
2026-04-24 22:56 49.79221 8.20187 36099 ft 429 kts 179°
2026-04-24 22:57 49.76247 8.20599 36469 ft 428 kts 179°
2026-04-24 22:57 49.73281 8.21009 36832 ft 427 kts 179°
2026-04-24 22:57 49.70321 8.21419 37114 ft 428 kts 179°
2026-04-24 22:57 49.67366 8.21829 37151 ft 424 kts 179°
2026-04-24 22:58 49.61534 8.22624 37167 ft 419 kts 179°
2026-04-24 22:58 49.55729 8.23404 37162 ft 418 kts 179°
2026-04-24 22:59 49.49969 8.24193 37164 ft 418 kts 179°
2026-04-24 23:00 49.41280 8.25382 37152 ft 418 kts 179°
2026-04-24 23:00 49.35495 8.26165 37162 ft 417 kts 179°
2026-04-24 23:01 49.29757 8.26940 37166 ft 417 kts 179°
2026-04-24 23:01 49.23982 8.27714 37165 ft 417 kts 179°
2026-04-24 23:02 49.18210 8.28491 37156 ft 416 kts 179°
2026-04-24 23:02 49.12443 8.29269 37162 ft 416 kts 179°
2026-04-24 23:03 49.06719 8.30034 37165 ft 416 kts 179°
2026-04-24 23:03 49.00960 8.30808 37168 ft 415 kts 179°
2026-04-24 23:04 48.95202 8.31703 37167 ft 416 kts 176°
2026-04-24 23:04 48.89476 8.32919 37166 ft 416 kts 175°
2026-04-24 23:05 48.83784 8.34190 37168 ft 415 kts 176°
2026-04-24 23:05 48.78068 8.34685 37166 ft 408 kts 189°
2026-04-24 23:06 48.72555 8.32902 37156 ft 405 kts 197°
2026-04-24 23:06 48.67084 8.30887 37158 ft 405 kts 196°
2026-04-24 23:07 48.61644 8.28912 37155 ft 405 kts 196°
2026-04-24 23:07 48.56165 8.26932 37152 ft 405 kts 196°
2026-04-24 23:08 48.50664 8.25071 37158 ft 407 kts 190°
2026-04-24 23:08 48.44977 8.25361 37158 ft 414 kts 174°
2026-04-24 23:09 48.39327 8.26744 37160 ft 414 kts 174°
2026-04-24 23:09 48.33636 8.28117 37143 ft 414 kts 174°
2026-04-24 23:10 48.27948 8.29488 37154 ft 414 kts 174°
2026-04-24 23:10 48.22257 8.30865 37162 ft 414 kts 174°
2026-04-24 23:11 48.16596 8.32230 37164 ft 414 kts 174°
2026-04-24 23:11 48.10902 8.33594 37161 ft 414 kts 174°
2026-04-24 23:11 48.08048 8.34287 36937 ft 417 kts 174°
2026-04-24 23:12 48.05182 8.34987 36675 ft 417 kts 174°
2026-04-24 23:12 48.02321 8.35685 36413 ft 417 kts 174°
2026-04-24 23:12 47.99452 8.36386 36162 ft 418 kts 174°
2026-04-24 23:12 47.96585 8.37083 35907 ft 418 kts 174°
2026-04-24 23:13 47.93748 8.37768 35662 ft 418 kts 174°
2026-04-24 23:13 47.90876 8.38459 35406 ft 419 kts 174°
2026-04-24 23:13 47.87997 8.39148 35163 ft 419 kts 174°
2026-04-24 23:13 47.85123 8.39837 34915 ft 419 kts 174°
2026-04-24 23:14 47.82240 8.40527 34668 ft 419 kts 174°
2026-04-24 23:14 47.79357 8.41217 34431 ft 419 kts 174°
2026-04-24 23:14 47.76489 8.41902 34190 ft 417 kts 174°
2026-04-24 23:14 47.73625 8.42584 33922 ft 416 kts 174°
2026-04-24 23:15 47.70775 8.43262 33641 ft 415 kts 173°
2026-04-24 23:15 47.67953 8.43911 33365 ft 415 kts 174°
2026-04-24 23:15 47.65093 8.44437 33099 ft 414 kts 176°
2026-04-24 23:15 47.62230 8.44857 32830 ft 412 kts 177°
2026-04-24 23:16 47.59383 8.45224 32569 ft 410 kts 177°
2026-04-24 23:16 47.56540 8.45581 32310 ft 409 kts 177°
2026-04-24 23:16 47.53709 8.45953 32051 ft 407 kts 176°
2026-04-24 23:16 47.50898 8.46344 31796 ft 406 kts 176°
2026-04-24 23:17 47.48135 8.46749 31549 ft 404 kts 176°
2026-04-24 23:17 47.45341 8.47168 31293 ft 402 kts 176°
2026-04-24 23:17 47.42559 8.47584 31047 ft 401 kts 175°
2026-04-24 23:17 47.39793 8.47998 30802 ft 399 kts 175°
2026-04-24 23:18 47.37032 8.48406 30562 ft 398 kts 175°
2026-04-24 23:18 47.34287 8.48805 30321 ft 396 kts 175°
2026-04-24 23:18 47.31546 8.49200 30055 ft 395 kts 175°
2026-04-24 23:18 47.28820 8.49595 29771 ft 393 kts 175°
2026-04-24 23:19 47.26143 8.49986 29494 ft 391 kts 175°
2026-04-24 23:19 47.23436 8.50383 29215 ft 390 kts 175°
2026-04-24 23:19 47.20744 8.50774 28940 ft 388 kts 175°
2026-04-24 23:19 47.18057 8.51163 28665 ft 387 kts 175°
2026-04-24 23:20 47.15380 8.51553 28400 ft 385 kts 175°
2026-04-24 23:20 47.12720 8.51944 28129 ft 384 kts 175°
2026-04-24 23:20 47.10963 8.52200 27956 ft 383 kts 175°
2026-04-24 23:20 47.08312 8.52583 27689 ft 382 kts 175°
2026-04-24 23:21 47.04815 8.53086 27337 ft 381 kts 175°
2026-04-24 23:21 47.02184 8.53462 27081 ft 380 kts 175°
2026-04-24 23:21 46.99554 8.53841 26827 ft 379 kts 175°
2026-04-24 23:21 46.96938 8.54221 26563 ft 378 kts 175°
2026-04-24 23:22 46.95204 8.54474 26403 ft 377 kts 175°
2026-04-24 23:22 46.92601 8.54856 26154 ft 376 kts 175°
2026-04-24 23:22 46.90002 8.55233 25899 ft 374 kts 175°
2026-04-24 23:22 46.87416 8.55604 25658 ft 373 kts 175°
2026-04-24 23:23 46.83998 8.56091 25338 ft 372 kts 174°
2026-04-24 23:23 46.81430 8.56454 25093 ft 371 kts 174°
2026-04-24 23:23 46.79698 8.56699 24922 ft 367 kts 174°
2026-04-24 23:23 46.77172 8.57062 24505 ft 364 kts 174°
2026-04-24 23:24 46.74686 8.57421 24061 ft 363 kts 174°
2026-04-24 23:24 46.72176 8.57783 23557 ft 362 kts 174°
2026-04-24 23:24 46.69678 8.58139 23046 ft 360 kts 174°
2026-04-24 23:24 46.67201 8.58491 22580 ft 357 kts 174°
2026-04-24 23:25 46.64737 8.58842 22114 ft 354 kts 174°
2026-04-24 23:25 46.61500 8.59301 21497 ft 351 kts 174°
2026-04-24 23:25 46.59863 8.59533 21175 ft 350 kts 174°
2026-04-24 23:25 46.57477 8.59870 20722 ft 348 kts 174°
2026-04-24 23:26 46.55074 8.60210 20268 ft 347 kts 174°
2026-04-24 23:26 46.52675 8.60552 19821 ft 346 kts 174°
2026-04-24 23:26 46.50283 8.60893 19371 ft 345 kts 174°
2026-04-24 23:26 46.47902 8.61230 18920 ft 344 kts 174°
2026-04-24 23:27 46.45526 8.61567 18475 ft 343 kts 174°
2026-04-24 23:27 46.42381 8.62013 17844 ft 342 kts 174°
2026-04-24 23:27 46.40782 8.62238 17546 ft 340 kts 174°
2026-04-24 23:27 46.38466 8.62561 17110 ft 338 kts 174°
2026-04-24 23:28 46.36128 8.62889 16684 ft 336 kts 174°
2026-04-24 23:28 46.33807 8.63217 16269 ft 335 kts 174°
2026-04-24 23:28 46.31491 8.63544 15847 ft 333 kts 174°
2026-04-24 23:28 46.29191 8.63870 15429 ft 332 kts 174°
2026-04-24 23:29 46.26896 8.64194 15019 ft 330 kts 174°
2026-04-24 23:29 46.24619 8.64512 14627 ft 328 kts 174°
2026-04-24 23:29 46.22347 8.64829 14230 ft 327 kts 174°
2026-04-24 23:29 46.20086 8.65145 13813 ft 326 kts 174°
2026-04-24 23:30 46.17860 8.65460 13385 ft 324 kts 174°
2026-04-24 23:30 46.15624 8.65777 12987 ft 322 kts 175°
2026-04-24 23:30 46.13410 8.66193 12581 ft 320 kts 167°
2026-04-24 23:30 46.11349 8.67338 12225 ft 317 kts 150°
2026-04-24 23:31 46.09616 8.69212 12077 ft 308 kts 135°
2026-04-24 23:31 46.08292 8.71622 11677 ft 307 kts 121°
2026-04-24 23:31 46.07197 8.74260 11291 ft 307 kts 121°
2026-04-24 23:31 46.06116 8.76857 10927 ft 306 kts 120°
2026-04-24 23:32 46.05025 8.79468 10582 ft 304 kts 120°
2026-04-24 23:32 46.03936 8.82070 10218 ft 303 kts 120°
2026-04-24 23:32 46.02863 8.84663 9824 ft 301 kts 119°
2026-04-24 23:32 46.01769 8.87221 9306 ft 300 kts 127°
2026-04-24 23:33 46.00139 8.89086 8681 ft 303 kts 157°
2026-04-24 23:33 45.98127 8.89638 8478 ft 290 kts 184°
2026-04-24 23:33 45.96220 8.89015 8337 ft 275 kts 199°
2026-04-24 23:33 45.94471 8.88174 8213 ft 262 kts 200°
2026-04-24 23:34 45.92786 8.87349 8096 ft 250 kts 200°
2026-04-24 23:34 45.91291 8.86260 7985 ft 235 kts 221°
2026-04-24 23:34 45.90270 8.84499 7711 ft 230 kts 244°
2026-04-24 23:34 45.89609 8.82462 7360 ft 223 kts 246°
2026-04-24 23:35 45.88943 8.80448 6885 ft 224 kts 246°
2026-04-24 23:35 45.88132 8.78558 6432 ft 224 kts 224°
2026-04-24 23:35 45.86768 8.77703 6242 ft 211 kts 185°
2026-04-24 23:35 45.85423 8.78144 6155 ft 191 kts 149°
2026-04-24 23:36 45.84572 8.79421 6072 ft 168 kts 115°
2026-04-24 23:36 45.84327 8.80909 6030 ft 147 kts 87°
2026-04-24 23:36 45.84557 8.82277 6014 ft 140 kts 62°
2026-04-24 23:36 45.85146 8.83355 6014 ft 137 kts 38°
2026-04-24 23:37 45.85971 8.84002 6007 ft 135 kts 17°
2026-04-24 23:37 45.86867 8.84435 6014 ft 136 kts 18°
2026-04-24 23:37 45.88695 8.85327 5537 ft 144 kts 18°
2026-04-24 23:38 45.89649 8.85792 5130 ft 144 kts 18°
2026-04-24 23:38 45.90588 8.86250 4802 ft 141 kts 18°
2026-04-24 23:38 45.91496 8.86693 4477 ft 139 kts 18°
2026-04-24 23:38 45.92416 8.87142 4074 ft 141 kts 18°
2026-04-24 23:39 45.93347 8.87596 3692 ft 141 kts 18°
2026-04-24 23:39 45.94274 8.88046 3348 ft 140 kts 18°
2026-04-24 23:39 45.95193 8.88509 3025 ft 139 kts 19°
2026-04-24 23:39 45.96089 8.89004 2695 ft 137 kts 19°
2026-04-24 23:40 45.96993 8.89481 2261 ft 141 kts 19°
2026-04-24 23:40 45.97929 8.89933 1872 ft 141 kts 14°
2026-04-24 23:40 45.98855 8.90309 1447 ft 142 kts 18°
2026-04-24 23:40 45.99805 8.90762 1001 ft 145 kts 17°
2026-04-24 23:41 46.00674 8.91181 902 ft 100 kts 19°
2026-04-24 23:41 46.00963 8.91321 900 ft 16 kts 18°
2026-04-24 23:41 46.01028 8.91331 902 ft 9 kts 357°
2026-04-24 23:41 46.01047 8.91361 902 ft 2 kts 127°
2026-04-24 23:42 46.01013 8.91348 906 ft 10 kts 200°
2026-04-24 23:42 46.00938 8.91310 900 ft 13 kts 199°
2026-04-24 23:42 46.00847 8.91266 900 ft 14 kts 198°
2026-04-24 23:42 46.00756 8.91222 901 ft 14 kts 198°
2026-04-24 23:43 46.00660 8.91175 902 ft 15 kts 199°
2026-04-24 23:43 46.00571 8.91131 906 ft 12 kts 199°
2026-04-24 23:43 46.00489 8.91092 907 ft 13 kts 198°
2026-04-24 23:43 46.00444 8.91045 912 ft 7 kts 267°
2026-04-24 23:44 46.00455 8.90972 903 ft 7 kts 251°
2026-04-24 23:44 46.00408 8.90937 905 ft 8 kts 199°
2026-04-24 23:44 46.00350 8.90908 905 ft 9 kts 198°
2026-04-24 23:44 46.00321 8.90877 903 ft 5 kts 252°
2026-04-24 23:45 46.00330 8.90854 903 ft 2 kts 321°
2026-04-24 23:45 46.00345 8.90854 903 ft 3 kts
2026-04-24 23:45 46.00359 8.90862 903 ft 0 kts 21°